Tracking 18624 objects as of 30-April-2017
HD Live streaming from Space Station
objects crossing your sky now

INMARSAT 4-F2

Track INMARSAT 4-F2 now!
INMARSAT 4-F2 is classified as:


NORAD ID: 28899
Int'l Code: 2005-044A
Perigee: 35,783.2 km
Apogee: 35,804.5 km
Inclination: 2.6 °
Period: 1,436.1 minutes
Semi major axis: 42164 km
RCS: 4.4668 m2 (large)
Launch date: November 8, 2005
Source: International Mobile Satellite Organization (INMARSAT) (IM)
Launch site: SEA LAUNCH (SEAL)

Nearly the size of a double-decker bus; more than 600 channels.
Your satellite tracking list
Your tracking list is empty





NASA's NSSDC Master Catalog

Two Line Element Set (TLE):
1 28899U 05044A   17118.25128270 -.00000003 +00000-0 +00000-0 0  9998
2 28899 002.5644 011.2000 0002536 027.2171 332.3548 01.00271390042062
Source of the keplerian elements: AFSPC